Time,TemperatureF,DewpointF,PressureIn,WindDirection,WindDirectionDegrees,WindSpeedMPH,WindSpeedGustMPH,Humidity,HourlyPrecipIn,Conditions,Clouds,dailyrainin,SoftwareType,DateUTC
2013-01-14 00:16:00,58.7,56.0,30.06,South,190,0.0,0.0,91,0.00,,,0.00,weatherlink.com 1.10,2013-01-14 05:16:00,
2013-01-14 00:31:00,58.3,56.0,30.07,South,189,0.0,0.0,93,0.00,,,0.00,weatherlink.com 1.10,2013-01-14 05:31:00,
2013-01-14 00:46:00,58.2,56.0,30.07,South,190,0.0,0.0,93,0.00,,,0.00,weatherlink.com 1.10,2013-01-14 05:46:00,
2013-01-14 01:01:00,57.9,56.0,30.06,South,190,0.0,0.0,94,0.00,,,0.00,weatherlink.com 1.10,2013-01-14 06:01:00,
2013-01-14 01:17:00,58.4,57.0,30.07,South,188,0.0,0.0,94,0.00,,,0.00,weatherlink.com 1.10,2013-01-14 06:17:00,
2013-01-14 01:32:00,58.5,57.0,30.07,South,189,0.0,1.0,94,0.00,,,0.00,weatherlink.com 1.10,2013-01-14 06:32:00,
2013-01-14 01:47:00,58.7,57.0,30.08,SE,136,0.0,1.0,94,0.04,,,0.04,weatherlink.com 1.10,2013-01-14 06:47:00,
2013-01-14 02:02:00,58.5,57.0,30.08,SE,136,0.0,0.0,95,0.06,,,0.06,weatherlink.com 1.10,2013-01-14 07:02:00,
2013-01-14 02:17:00,58.8,58.0,30.08,SE,136,0.0,1.0,96,0.06,,,0.06,weatherlink.com 1.10,2013-01-14 07:17:00,
2013-01-14 02:32:00,58.9,58.0,30.09,SE,136,0.0,0.0,96,0.06,,,0.06,weatherlink.com 1.10,2013-01-14 07:32:00,
2013-01-14 02:47:00,58.8,58.0,30.09,SE,136,0.0,1.0,96,0.09,,,0.13,weatherlink.com 1.10,2013-01-14 07:47:00,
2013-01-14 03:02:00,59.3,59.0,30.09,SSW,206,1.0,2.0,97,0.16,,,0.22,weatherlink.com 1.10,2013-01-14 08:02:00,
2013-01-14 03:17:00,59.6,59.0,30.08,South,172,1.0,3.0,97,0.17,,,0.23,weatherlink.com 1.10,2013-01-14 08:17:00,
2013-01-14 03:32:00,59.6,59.0,30.08,South,176,0.0,6.0,96,0.18,,,0.24,weatherlink.com 1.10,2013-01-14 08:32:00,
2013-01-14 03:47:00,59.5,58.0,30.07,SW,219,0.0,1.0,96,0.12,,,0.25,weatherlink.com 1.10,2013-01-14 08:47:00,
2013-01-14 04:02:00,59.5,58.0,30.07,SW,226,0.0,1.0,96,0.03,,,0.25,weatherlink.com 1.10,2013-01-14 09:02:00,
2013-01-14 04:17:00,59.3,58.0,30.07,SW,226,0.0,0.0,96,0.02,,,0.25,weatherlink.com 1.10,2013-01-14 09:17:00,
2013-01-14 04:32:00,59.5,59.0,30.07,SSW,195,0.0,2.0,97,0.01,,,0.25,weatherlink.com 1.10,2013-01-14 09:32:00,
2013-01-14 04:47:00,59.6,59.0,30.06,SSE,153,0.0,2.0,97,0.00,,,0.25,weatherlink.com 1.10,2013-01-14 09:47:00,
2013-01-14 05:02:00,59.4,59.0,30.05,SSE,152,1.0,1.0,97,0.01,,,0.26,weatherlink.com 1.10,2013-01-14 10:02:00,
2013-01-14 05:17:00,59.1,58.0,30.05,SSE,152,0.0,1.0,96,0.01,,,0.26,weatherlink.com 1.10,2013-01-14 10:17:00,
2013-01-14 05:32:00,58.7,58.0,30.05,SSE,152,0.0,0.0,97,0.01,,,0.26,weatherlink.com 1.10,2013-01-14 10:32:00,
2013-01-14 05:47:00,58.5,58.0,30.05,SSE,152,0.0,0.0,97,0.01,,,0.26,weatherlink.com 1.10,2013-01-14 10:47:00,
2013-01-14 06:02:00,58.6,58.0,30.06,SSE,152,0.0,0.0,97,0.00,,,0.26,weatherlink.com 1.10,2013-01-14 11:02:00,
2013-01-14 06:17:00,58.9,58.0,30.06,SSE,152,0.0,0.0,97,0.00,,,0.26,weatherlink.com 1.10,2013-01-14 11:17:00,
2013-01-14 06:32:00,58.6,58.0,30.06,SSE,152,0.0,0.0,97,0.00,,,0.26,weatherlink.com 1.10,2013-01-14 11:32:00,
2013-01-14 06:47:00,58.6,58.0,30.07,SSE,152,0.0,0.0,97,0.00,,,0.26,weatherlink.com 1.10,2013-01-14 11:47:00,
2013-01-14 07:02:00,58.9,58.0,30.07,SSW,198,1.0,2.0,97,0.00,,,0.26,weatherlink.com 1.10,2013-01-14 12:02:00,
2013-01-14 07:17:00,59.0,58.0,30.07,SSW,208,0.0,1.0,97,0.00,,,0.26,weatherlink.com 1.10,2013-01-14 12:17:00,
2013-01-14 07:32:00,59.0,58.0,30.08,SSW,208,0.0,0.0,97,0.00,,,0.26,weatherlink.com 1.10,2013-01-14 12:32:00,
2013-01-14 07:47:00,59.0,58.0,30.08,SSW,208,0.0,1.0,97,0.00,,,0.26,weatherlink.com 1.10,2013-01-14 12:47:00,
2013-01-14 08:02:00,58.8,58.0,30.08,SSW,209,0.0,0.0,97,0.00,,,0.26,weatherlink.com 1.10,2013-01-14 13:02:00,
2013-01-14 08:17:00,59.0,58.0,30.08,SSW,207,0.0,0.0,97,0.02,,,0.28,weatherlink.com 1.10,2013-01-14 13:17:00,
2013-01-14 08:32:00,58.9,58.0,30.09,SSW,209,0.0,0.0,97,0.02,,,0.28,weatherlink.com 1.10,2013-01-14 13:32:00,
2013-01-14 08:47:00,58.9,58.0,30.10,SSW,208,0.0,0.0,97,0.02,,,0.28,weatherlink.com 1.10,2013-01-14 13:47:00,
2013-01-14 09:02:00,58.9,58.0,30.10,SSW,208,0.0,0.0,97,0.02,,,0.28,weatherlink.com 1.10,2013-01-14 14:02:00,
2013-01-14 09:17:00,59.0,58.0,30.10,SSW,208,0.0,0.0,97,0.00,,,0.28,weatherlink.com 1.10,2013-01-14 14:17:00,
2013-01-14 09:32:00,59.0,58.0,30.11,SSW,208,0.0,0.0,97,0.00,,,0.28,weatherlink.com 1.10,2013-01-14 14:32:00,
2013-01-14 09:47:00,59.1,58.0,30.10,SSW,208,0.0,0.0,97,0.00,,,0.28,weatherlink.com 1.10,2013-01-14 14:47:00,
2013-01-14 10:02:00,59.3,59.0,30.11,SSW,208,0.0,0.0,97,0.00,,,0.28,weatherlink.com 1.10,2013-01-14 15:02:00,
2013-01-14 10:17:00,59.4,59.0,30.11,SSW,208,0.0,0.0,97,0.01,,,0.29,weatherlink.com 1.10,2013-01-14 15:17:00,
2013-01-14 10:32:00,59.5,59.0,30.11,SSW,208,0.0,0.0,97,0.01,,,0.29,weatherlink.com 1.10,2013-01-14 15:32:00,
2013-01-14 10:47:00,59.7,59.0,30.12,SSW,208,0.0,0.0,97,0.01,,,0.29,weatherlink.com 1.10,2013-01-14 15:47:00,
2013-01-14 11:02:00,59.8,59.0,30.10,South,190,0.0,1.0,97,0.01,,,0.29,weatherlink.com 1.10,2013-01-14 16:02:00,
2013-01-14 11:17:00,60.0,59.0,30.10,SW,226,0.0,0.0,97,0.02,,,0.31,weatherlink.com 1.10,2013-01-14 16:17:00,
2013-01-14 11:32:00,60.2,59.0,30.10,SW,226,0.0,0.0,97,0.03,,,0.32,weatherlink.com 1.10,2013-01-14 16:32:00,
2013-01-14 11:47:00,60.3,60.0,30.09,SW,226,1.0,1.0,97,0.05,,,0.34,weatherlink.com 1.10,2013-01-14 16:47:00,
2013-01-14 12:02:00,60.4,60.0,30.09,SW,229,0.0,1.0,97,0.06,,,0.35,weatherlink.com 1.10,2013-01-14 17:02:00,
2013-01-14 12:17:00,60.4,60.0,30.08,SW,229,0.0,1.0,97,0.06,,,0.37,weatherlink.com 1.10,2013-01-14 17:17:00,
2013-01-14 12:32:00,60.5,60.0,30.07,SW,229,0.0,0.0,97,0.08,,,0.40,weatherlink.com 1.10,2013-01-14 17:32:00,
2013-01-14 12:47:00,60.7,60.0,30.07,SW,229,0.0,0.0,97,0.08,,,0.42,weatherlink.com 1.10,2013-01-14 17:47:00,
2013-01-14 13:02:00,61.0,60.0,30.07,SW,229,0.0,0.0,97,0.08,,,0.43,weatherlink.com 1.10,2013-01-14 18:02:00,
2013-01-14 13:17:00,61.1,60.0,30.06,SW,229,0.0,0.0,97,0.06,,,0.43,weatherlink.com 1.10,2013-01-14 18:17:00,
2013-01-14 13:32:00,61.1,60.0,30.05,SSE,156,0.0,1.0,97,0.03,,,0.44,weatherlink.com 1.10,2013-01-14 18:32:00,
2013-01-14 13:47:00,61.2,60.0,30.05,SSE,150,0.0,1.0,97,0.04,,,0.46,weatherlink.com 1.10,2013-01-14 18:47:00,
2013-01-14 14:02:00,61.1,60.0,30.05,SSE,149,0.0,0.0,97,0.10,,,0.53,weatherlink.com 1.10,2013-01-14 19:02:00,
2013-01-14 14:17:00,61.1,60.0,30.06,SSE,149,0.0,0.0,97,0.16,,,0.59,weatherlink.com 1.10,2013-01-14 19:17:00,
2013-01-14 14:32:00,61.0,60.0,30.06,SSE,149,0.0,0.0,97,0.20,,,0.64,weatherlink.com 1.10,2013-01-14 19:32:00,
2013-01-14 14:47:00,60.9,60.0,30.07,South,176,2.0,2.0,97,0.23,,,0.69,weatherlink.com 1.10,2013-01-14 19:47:00,
2013-01-14 15:02:00,60.7,60.0,30.07,SSE,166,0.0,2.0,97,0.21,,,0.75,weatherlink.com 1.10,2013-01-14 20:02:00,
2013-01-14 15:17:00,60.7,60.0,30.08,SW,220,0.0,1.0,97,0.23,,,0.82,weatherlink.com 1.10,2013-01-14 20:17:00,
2013-01-14 15:33:00,60.6,60.0,30.07,NNW,333,1.0,3.0,97,0.27,,,0.91,weatherlink.com 1.10,2013-01-14 20:33:00,
2013-01-14 15:48:00,60.5,60.0,30.07,East,89,0.0,1.0,97,0.28,,,0.98,weatherlink.com 1.10,2013-01-14 20:48:00,
2013-01-14 16:03:00,60.4,60.0,30.08,East,88,0.0,1.0,97,0.31,,,1.06,weatherlink.com 1.10,2013-01-14 21:03:00,
2013-01-14 16:18:00,60.4,60.0,30.08,NNW,328,0.0,2.0,97,0.39,,,1.21,weatherlink.com 1.10,2013-01-14 21:18:00,
2013-01-14 16:33:00,60.3,60.0,30.09,North,356,0.0,3.0,97,0.43,,,1.34,weatherlink.com 1.10,2013-01-14 21:33:00,
2013-01-14 16:48:00,60.3,60.0,30.10,West,281,1.0,1.0,97,0.49,,,1.47,weatherlink.com 1.10,2013-01-14 21:48:00,
2013-01-14 17:03:00,60.2,59.0,30.09,NE,54,1.0,2.0,97,0.48,,,1.54,weatherlink.com 1.10,2013-01-14 22:03:00,
2013-01-14 17:18:00,59.3,59.0,30.09,North,11,0.0,4.0,97,0.33,,,1.54,weatherlink.com 1.10,2013-01-14 22:18:00,
2013-01-14 17:33:00,59.0,58.0,30.10,NNE,25,0.0,4.0,97,0.22,,,1.56,weatherlink.com 1.10,2013-01-14 22:33:00,
2013-01-14 17:48:00,59.0,58.0,30.11,WSW,238,0.0,2.0,97,0.13,,,1.61,weatherlink.com 1.10,2013-01-14 22:48:00,
2013-01-14 18:03:00,58.9,58.0,30.11,SE,134,0.0,2.0,97,0.09,,,1.63,weatherlink.com 1.10,2013-01-14 23:03:00,
2013-01-14 18:18:00,58.8,58.0,30.11,NE,56,0.0,2.0,97,0.11,,,1.65,weatherlink.com 1.10,2013-01-14 23:18:00,
2013-01-14 18:33:00,58.6,58.0,30.11,SSE,153,0.0,1.0,97,0.11,,,1.67,weatherlink.com 1.10,2013-01-14 23:33:00,
2013-01-14 18:48:00,58.5,58.0,30.11,SE,145,1.0,2.0,97,0.09,,,1.70,weatherlink.com 1.10,2013-01-14 23:48:00,
2013-01-14 19:03:00,58.3,58.0,30.11,NNW,334,0.0,3.0,97,0.08,,,1.71,weatherlink.com 1.10,2013-01-15 00:03:00,
2013-01-14 19:18:00,58.0,57.0,30.11,SW,214,0.0,1.0,97,0.07,,,1.72,weatherlink.com 1.10,2013-01-15 00:18:00,
2013-01-14 19:48:00,57.4,57.0,30.10,SW,222,0.0,1.0,97,0.08,,,1.78,weatherlink.com 1.10,2013-01-15 00:48:00,
2013-01-14 20:03:00,57.2,56.0,30.10,SW,222,0.0,1.0,97,0.11,,,1.82,weatherlink.com 1.10,2013-01-15 01:03:00,
2013-01-14 20:18:00,57.1,56.0,30.10,SW,222,0.0,1.0,97,0.13,,,1.86,weatherlink.com 1.10,2013-01-15 01:18:00,
2013-01-14 20:33:00,57.2,56.0,30.11,SSW,204,1.0,1.0,97,0.17,,,1.95,weatherlink.com 1.10,2013-01-15 01:33:00,
2013-01-14 20:48:00,57.2,56.0,30.11,SW,218,0.0,1.0,97,0.24,,,2.02,weatherlink.com 1.10,2013-01-15 01:48:00,
2013-01-14 21:03:00,57.3,57.0,30.12,WNW,296,1.0,4.0,97,0.24,,,2.06,weatherlink.com 1.10,2013-01-15 02:03:00,
2013-01-14 21:18:00,57.3,57.0,30.10,NNE,29,1.0,2.0,97,0.22,,,2.09,weatherlink.com 1.10,2013-01-15 02:18:00,
2013-01-14 21:33:00,57.2,56.0,30.11,NNW,330,2.0,3.0,97,0.15,,,2.10,weatherlink.com 1.10,2013-01-15 02:33:00,
2013-01-14 21:48:00,57.0,56.0,30.11,NW,308,0.0,4.0,97,0.11,,,2.13,weatherlink.com 1.10,2013-01-15 02:48:00,
2013-01-14 22:03:00,56.9,56.0,30.12,North,1,1.0,6.0,96,0.08,,,2.14,weatherlink.com 1.10,2013-01-15 03:03:00,
2013-01-14 22:18:00,56.6,54.0,30.13,NW,316,1.0,8.0,92,0.05,,,2.14,weatherlink.com 1.10,2013-01-15 03:18:00,
2013-01-14 22:33:00,55.7,53.0,30.12,North,9,1.0,9.0,91,0.04,,,2.14,weatherlink.com 1.10,2013-01-15 03:33:00,
2013-01-14 22:48:00,54.9,53.0,30.14,ESE,116,0.0,2.0,92,0.05,,,2.18,weatherlink.com 1.10,2013-01-15 03:48:00,
2013-01-14 23:03:00,54.3,52.0,30.14,NNW,341,1.0,4.0,93,0.06,,,2.20,weatherlink.com 1.10,2013-01-15 04:03:00,
2013-01-14 23:18:00,53.6,52.0,30.15,North,6,2.0,4.0,93,0.09,,,2.23,weatherlink.com 1.10,2013-01-15 04:18:00,
2013-01-14 23:33:00,53.1,52.0,30.15,ENE,77,2.0,4.0,94,0.10,,,2.24,weatherlink.com 1.10,2013-01-15 04:33:00,
2013-01-14 23:48:00,52.5,51.0,30.16,NNW,328,2.0,4.0,94,0.10,,,2.28,weatherlink.com 1.10,2013-01-15 04:48:00,